Location: New Plymouth
(39.0670°S, 174.0830°E)
Time: 18:20:29
(UTC+13:00)

USA 238 DEB - Pass Details

Date: 24 January 2019
Orbit: 1043 x 1169 km, 63.4° (Epoch: 17 February)

Event Time Altitude Azimuth Distance (km) Brightness Sun altitude
Rises 22:13:14 0° 354° (N) 4,032 6.4 -14.9°
Reaches altitude 10° 22:16:09 10° 2° (N) 3,074 5.7 -15.4°
Maximum altitude 22:22:50 39° 67° (ENE) 1,689 4.3 -16.3°
Drops below altitude 10° 22:29:27 10° 132° (SE) 3,051 6.0 -17.2°
Sets 22:32:19 0° 139° (SE) 3,999 6.8 -17.6°
